OneWeb SL0702

operational
NORAD ID: 61608 Int'l Des: 2024-188 Owner: ONEWEBE Country: UK Constellation: oneweb
LEOCIRCULARPOLARONEWEB_TYPE

About OneWeb SL0702

Description loading...

Live Position

Loading 3D Globe...

Upcoming Passes

Altitude History

Altitude vs Time

uPlot chart will show altitude changes over time

Two-Line Element Set

1 61608U 24188Q 25299.09363127 -.00000258 00000-0 -76353-3 0 9996
2 61608 87.8782 67.6140 0002565 93.5749 266.5673 13.11420010 53806
Epoch: Oct 26, 2025 • Age: 9 hours

Current Status

Altitude 1224.1 km
Velocity 7.25 km/s
Sub-Earth Point 49.44°N, 139.9°W
Launch Date Oct 20, 2024
Age 1 years
Type internet

Technical Details

Classification Payload
Mass 148.00 kg
Dry Mass 140.00 kg
Total Mass 148.00 kg
Length 1.30 m
Diameter 1.00 m
Span 5.00 m
Shape Trapezoid+2 pan
Manufacturer ONEWUS
Bus Type ARROW
Phase Status In Orbit
Owner/State ONEWEBE/UK

Large Constellations

Loading constellations...